SLEIPNER A PLATF current weather conditions

sailwx.info

Wind from 260 at 8 knots

Air temperature 4.0° C
Visibility: greater than 5.4 NM
Dewpoint 3.0° C

Last reported at 2015-Mar-29 19:20 UTC.
Time now 2015-Mar-29 20:48 UTC

Location: N 58°22' E 001°54'.
View on Google Maps.

See reports from other nearby stations

  
Tides and Currents Weather Stations Pressure Air Temp Water Temp Dewpoint Dewpoint Depression Visibility Wind Speed Wind Dir Waves Ship Positions
date/time (UTC)wind fromknots sea level pressurealtimeterstation pressurevisibilityair tempwater tempwave heightnotes
2015-Mar-29 19:20 260 8 5.4 4.0
2015-Mar-29 18:50 260 7 5.4 4.0
2015-Mar-29 18:20 260 6 5.4 4.0
2015-Mar-29 17:50 300 6 5.4 4.0
2015-Mar-29 17:20 290 3 5.4 3.0 Light rain.
2015-Mar-29 16:50 300 11 5.4 4.0 Light rain.
2015-Mar-29 16:20 300 14 5.4 4.0 Light rain.
2015-Mar-29 15:50 270 15 4.9 4.0 Heavy rain.
2015-Mar-29 15:20 240 7 5.4 6.0
2015-Mar-29 14:50 240 6 5.4 5.0
2015-Mar-29 14:20 210 10 5.4 5.0 Light drizzle.
2015-Mar-29 13:50 210 10 5.4 5.0 Showers in the vicinity.
2015-Mar-29 13:20 220 10 5.4 5.0
2015-Mar-29 12:50 230 8 5.4 5.0 Light rain showers.
2015-Mar-29 12:20 270 6 5.4 6.0 Showers in the vicinity.
2015-Mar-29 11:20 290 13 5.4 5.0 Light rain showers.
2015-Mar-29 10:50 280 7 5.4 6.0
2015-Mar-29 10:20 280 9 5.4 6.0
2015-Mar-29 09:50 270 10 5.4 6.0
2015-Mar-29 09:20 270 8 5.4 6.0
2015-Mar-29 08:50 260 8 5.4 6.0 Light rain.
2015-Mar-29 08:20 290 11 5.4 6.0 Showers in the vicinity.
2015-Mar-29 07:50 290 14 5.4 6.0
2015-Mar-29 07:20 290 14 5.4 6.0 Showers in the vicinity.
2015-Mar-29 06:50 260 14 5.4 6.0 Light rain showers.
2015-Mar-29 06:20 280 14 5.4 6.0 Showers in the vicinity.
2015-Mar-29 05:20 270 17 5.4 6.0
2015-Mar-29 04:50 280 18 5.4 6.0
2015-Mar-29 04:20 280 20 5.4 6.0
2015-Mar-29 03:50 290 22 5.4 6.0
2015-Mar-29 03:20 290 23 5.4 6.0
2015-Mar-29 02:50 280 25 5.4 6.0
2015-Mar-29 02:20 280 23 5.4 6.0
2015-Mar-29 01:50 280 24 5.4 6.0
2015-Mar-29 01:20 280 26 5.4 6.0
2015-Mar-29 00:50 280 27 5.4 7.0
2015-Mar-29 00:20 280 27 5.4 7.0
2015-Mar-28 23:50 280 30 5.4 7.0
2015-Mar-28 23:20 280 29 5.4 7.0
2015-Mar-28 22:50 280 31 5.4 7.0 Light rain showers.
2015-Mar-28 22:20 270 35 5.4 7.0
2015-Mar-28 21:50 270 31 5.4 7.0
2015-Mar-28 21:20 270 30 5.4 7.0
2015-Mar-28 20:50 280 33 5.4 7.0
2015-Mar-28 20:20 290 34 5.4 7.0
2015-Mar-28 19:50 290 38 5.4 7.0
2015-Mar-28 19:20 290 39 5.4 7.0
2015-Mar-28 18:50 270 40 4.9 7.0
2015-Mar-28 18:20 280 42 3.2 7.0 Light rain showers.
2015-Mar-28 17:50 250 42 2.0 8.0 Light rain. Mist.
2015-Mar-28 17:20 230 39 4.9 9.0
2015-Mar-28 16:50 210 39 4.9 9.0
2015-Mar-28 15:50 200 40 2.7 8.0
2015-Mar-28 15:20 190 39 2.7 8.0
2015-Mar-28 14:20 180 42 5.4 7.0
2015-Mar-28 13:50 170 46 2.7 7.0 Light rain.
2015-Mar-28 13:20 160 48 3.2 7.0 Light rain.
2015-Mar-28 12:50 2.3 6.0 Light rain.
2015-Mar-28 12:20 150 53 2.4 5.0 Light rain.
2015-Mar-28 11:50 150 52 2.3 5.0 Rain.
2015-Mar-28 11:20 160 53 2.3 4.0 Light rain.
2015-Mar-28 10:50 160 49 2.3 5.0 Light rain.
2015-Mar-28 10:20 170 47 3.2 6.0 Light rain.
2015-Mar-28 09:50 160 46 2.7 6.0 Light rain.
2015-Mar-28 09:20 160 44 5.4 6.0
2015-Mar-28 08:50 160 44 5.4 7.0
2015-Mar-28 08:20 160 38 5.4 7.0
2015-Mar-28 07:50 170 34 5.4 7.0
2015-Mar-28 06:50 180 30 5.4 6.0
2015-Mar-28 06:20 180 27 5.4 6.0
2015-Mar-28 05:50 180 25 5.4 7.0
2015-Mar-28 05:20 180 24 5.4 7.0
2015-Mar-28 04:50 200 22 5.4 7.0
2015-Mar-28 04:20 200 23 5.4 7.0
2015-Mar-28 03:50 200 22 5.4 7.0
2015-Mar-28 03:20 200 22 5.4 7.0
2015-Mar-28 02:50 200 17 5.4 7.0
2015-Mar-28 02:20 220 18 5.4 7.0
2015-Mar-28 01:50 230 17 5.4 7.0
2015-Mar-28 01:20 230 18 5.4 7.0
2015-Mar-28 00:50 220 20 5.4 7.0
2015-Mar-28 00:20 220 18 5.4 7.0
2015-Mar-27 23:50 220 18 5.4 7.0
2015-Mar-27 23:20 220 18 5.4 7.0
2015-Mar-27 22:50 220 18 5.4 7.0
2015-Mar-27 22:20 210 17 5.4 7.0
2015-Mar-27 21:50 210 16 5.4 7.0
2015-Mar-27 21:20 220 16 5.4 7.0
2015-Mar-27 20:50 220 17 5.4 7.0
2015-Mar-27 20:20 220 17 5.4 7.0